Location: Sternwarte_Laufen
(47.9344°N, 12.9346°E)
Time: 15:15:43
(UTC+02:00)

ISS - Pass Details

Date: 29 March 2017
Orbit: 399 x 409 km, 51.6° (Epoch: 29 March)

Event Time Altitude Azimuth Distance (km) Brightness Sun altitude
Rises 21:40:21 0° 249° (WSW) 2,308 0.5 -20.7°
Reaches altitude 10° 21:42:26 10° 250° (WSW) 1,453 -0.5 -21.0°
Enters shadow 21:45:05 56° 261° (W) 487 -3.3 -21.4°
